GW3742 Weather Reports


time (UTC)temp
C
wind
direction
speed
KPH
gust
KPH
rain 1hr
cm
rain 24hr
cm
rain mn
cm
humidity
%
barometer
mb
20260504204556 21 253 4.8 0.0 0.00 0.00 0.00 33 1004.7
20260504203053 21 156 6.4 0.0 0.00 0.00 0.00 32 1004.5
20260504201536 21 197 4.8 0.0 0.00 0.00 0.00 34 1004.7
20260504200048 21 233 6.4 0.0 0.00 0.00 0.00 33 1004.8
20260504194515 22 280 6.4 0.0 0.00 0.00 0.00 32 1004.9
20260504193015 21 251 6.4 0.0 0.00 0.00 0.00 31 1004.9
20260504191609 21 250 6.4 0.0 0.00 0.00 0.00 33 1004.8
20260504190056 21 300 6.4 0.0 0.00 0.00 0.00 35 1004.9
20260504184539 21 267 6.4 0.0 0.00 0.00 0.00 36 1005.1
20260504183037 21 291 6.4 0.0 0.00 0.00 0.00 30 1005.5
20260504181515 21 155 8.0 0.0 0.00 0.00 0.00 32 1005.4
20260504180014 21 232 6.4 0.0 0.00 0.00 0.00 31 1005.5
20260504174557 20 188 6.4 0.0 0.00 0.00 0.00 32 1005.6
20260504173052 20 251 8.0 0.0 0.00 0.00 0.00 32 1005.9
20260504171532 20 276 8.0 0.0 0.00 0.00 0.00 32 1005.8
20260504120107 11 277 3.2 0.0 0.00 0.00 0.00 54 1008.9
20260504081528 3 53 0.0 0.0 0.00 0.00 0.00 82 1008.9
20260504044524 0 53 0.0 0.0 0.00 0.00 0.00 91 1008.9
20260504043020 0 53 0.0 0.0 0.00 0.00 0.00 90 1009.0
20260504041559 0 53 0.0 0.0 0.00 0.00 0.00 89 1008.8
20260504040054 0 53 0.0 0.0 0.00 0.00 0.00 89 1008.7
20260504034539 0 53 0.0 0.0 0.00 0.00 0.00 88 1008.6
20260504033029 0 53 0.0 0.0 0.00 0.00 0.00 87 1008.6
20260504031511 0 53 0.0 0.0 0.00 0.00 0.00 86 1008.5
20260504030003 1 53 0.0 0.0 0.00 0.00 0.00 85 1008.4
20260504024559 1 53 0.0 0.0 0.00 0.00 0.00 84 1008.3
20260504023041 1 53 0.0 0.0 0.00 0.00 0.00 84 1008.3
20260504021541 1 53 0.0 0.0 0.00 0.00 0.00 83 1008.2
20260504020011 2 53 0.0 0.0 0.00 0.00 0.00 83 1008.3
20260504014508 2 53 0.0 0.0 0.00 0.00 0.00 81 1008.1
20260504013054 2 53 0.0 0.0 0.00 0.00 0.00 79 1008.1
20260504011545 3 53 0.0 0.0 0.00 0.00 0.00 76 1007.9
20260504010051 3 53 0.0 0.0 0.00 0.00 0.00 75 1007.7
20260504004543 4 53 0.0 0.0 0.00 0.00 0.00 73 1007.4
20260504003031 5 53 0.0 0.0 0.00 0.00 0.00 71 1007.3
20260504001534 6 53 0.0 0.0 0.00 0.00 0.00 68 1007.1
20260504000023 7 53 0.0 0.0 0.00 0.00 0.00 63 1007.0
20260503234520 8 53 0.0 0.0 0.00 0.00 0.00 58 1006.9
20260503233014 9 53 0.0 0.0 0.00 0.00 0.00 48 1006.7
20260503230008 10 253 3.2 0.0 0.00 0.00 0.00 44 1006.4
20260503224504 10 3 1.6 0.0 0.00 0.00 0.00 44 1006.3
20260503223113 10 350 4.8 0.0 0.00 0.00 0.00 44 1006.2
20260503220059 10 28 3.2 0.0 0.00 0.00 0.00 42 1005.9
20260503214558 11 336 4.8 0.0 0.00 0.00 0.00 40 1005.7
20260503213051 11 334 3.2 0.0 0.00 0.00 0.00 44 1005.6
20260503210055 11 251 4.8 0.0 0.00 0.00 0.00 40 1005.2